Location: McFarlands Corners
(41.4117°N, 81.3382°W)
Time: 17:10:37
(UTC+00:00)

Transit 2A - Pass Details

Date: 24 February 2026
Orbit: 590 x 954 km, 66.7° (Epoch: 7 March)

Event Time Altitude Azimuth Distance (km) Brightness Sun altitude
Rises 23:53:51 0° 337° (NNW) 3,577 9.7 -9.1°
Reaches altitude 10° 23:57:10 10° 353° (N) 2,585 8.8 -9.8°
Maximum altitude 00:01:34 21° 41° (NE) 1,863 7.6 -10.6°
Enters shadow 00:04:32 14° 78° (ENE) 2,151 7.7 -11.1°
